                ,  0.730,  0.880,  1.030,  1.180,  1.330,  1.480,  1.630,  1.780,  1.930,  2.080,  2.230,  2.380,  2.530,  2.680,  2.830,  2.980,  3.130,  3.280,  3.430,  3.580,  3.730,  3.880,  4.030,  4.180,  4.330,  4.480,  4.630,  4.780,  4.930,  5.080,  5.230,  5.380
1999/07/12 00:00,   -0.1,  999.0,   -0.2,  999.0,    0.1,   -0.2,   -0.2,   -0.1,   -0.4,   -0.7,   -1.2,  999.0,   -1.3,   -1.3,   -0.9,   -0.8,   -0.5,   -0.5,   -0.6,   -0.5,   -0.5,  999.0,  999.0,  999.0,  999.0,  999.0,  999.0,  999.0,   -0.4,   -0.4,  999.0,  999.0
1999/07/12 00:10,  999.0,  999.0,   -0.4,   -0.1,   -0.2,   -0.2,   -0.3,   -0.2,   -0.2,   -0.7,   -1.0,   -1.1,   -1.4,   -1.3,   -1.1,   -0.8,  999.0,   -0.6,   -0.9,  999.0,  999.0,  999.0,  999.0,  999.0,  999.0,  999.0,  999.0,  999.0,  999.0,  999.0,   -1.1,   -0.8
1999/07/12 00:20,  999.0,  999.0,  999.0,   -0.3,   -0.2,   -0.3,   -0.2,   -0.1,   -0.1,   -0.6,   -0.8,   -1.0,   -1.2,   -1.1,   -1.1,   -0.9,   -0.6,   -0.5,  999.0,  999.0,  999.0,  999.0,  999.0,  999.0,  999.0,  999.0,  999.0,  999.0,  999.0,  999.0,  999.0,  999.0
1999/07/12 00:30,   -0.5,  999.0,   -0.3,   -0.3,   -0.3,  999.0,   -0.4,  999.0,  999.0,   -0.8,   -0.9,   -1.1,   -1.1,   -1.3,   -1.1,   -1.0,   -0.7,   -0.7,   -1.0,  999.0,  999.0,  999.0,  999.0,  999.0,  999.0,  999.0,  999.0,   -0.6,   -0.7,   -0.9,   -0.9,   -1.7
1999/07/12 00:40,   -0.4,   -0.5,  999.0,   -0.2,  999.0,   -0.4,   -0.4,   -0.2,   -0.3,   -0.6,   -0.8,   -0.9,   -0.9,   -1.1,   -1.1,   -1.0,   -0.8,   -0.8,   -0.8,   -0.8,  999.0,  999.0,  999.0,  999.0,  999.0,  999.0,  999.0,   -0.5,   -0.4,   -0.7,   -1.2,   -2.2
1999/07/12 00:50,   -0.4,  999.0,   -0.3,   -0.2,   -0.3,  999.0,  999.0,  999.0,   -0.3,   -0.4,   -0.7,   -0.8,   -0.9,   -1.0,   -1.0,   -0.8,   -0.7,   -0.6,   -0.8,   -0.9,   -0.7,  999.0,  999.0,  999.0,  999.0,  999.0,  999.0,   -0.2,   -0.2,   -0.1,   -0.8,   -1.2
1999/07/12 01:00,  999.0,  999.0,   -0.7,  999.0,  999.0,  999.0,  999.0,   -0.5,  999.0,   -0.8,   -0.9,   -0.9,   -0.8,   -1.0,   -1.0,   -0.9,   -0.8,   -0.9,   -0.9,   -1.0,  999.0,  999.0,  999.0,  999.0,  999.0,  999.0,  999.0,  999.0,   -0.4,   -0.5,   -1.4,   -2.1
1999/07/12 01:10,  999.0,   -0.4,   -0.5,  999.0,  999.0,  999.0,   -0.6,   -0.6,  999.0,   -0.8,   -0.9,   -0.8,   -0.9,   -0.8,   -0.9,   -0.9,   -1.0,   -0.9,   -1.0,   -1.0,  999.0,  999.0,  999.0,  999.0,   -0.6,   -0.4,   -0.5,   -0.4,   -0.1,   -1.0,   -2.1,   -2.1
1999/07/12 01:20,  999.0,  999.0,   -0.3,   -0.1,   -0.3,   -0.3,   -0.6,  999.0,   -0.3,   -0.7,   -0.8,   -0.8,   -0.8,   -0.7,   -0.9,   -0.8,   -0.8,   -1.0,  999.0,  999.0,  999.0,  999.0,   -0.3,   -0.3,    0.2,    0.6,    0.7,    0.1,   -0.0,   -1.5,   -2.4,   -2.5
1999/07/12 01:30,   -0.6,  999.0,  999.0,  999.0,  999.0,  999.0,  999.0,  999.0,  999.0,  999.0,   -0.8,   -0.8,   -0.8,   -0.9,   -0.8,   -0.8,   -0.9,   -0.9,   -0.9,  999.0,   -0.1,   -0.4,   -0.1,    0.2,  999.0,   -2.3,   -2.0,   -2.1,   -2.3,   -2.2,   -2.2,   -2.7
1999/07/12 01:40,   -0.6,   -0.7,   -0.8,   -0.5,   -0.4,  999.0,  999.0,  999.0,   -0.1,  999.0,  999.0,   -0.7,   -0.8,   -0.8,   -0.7,   -0.7,   -0.8,   -0.8,   -0.8,   -0.6,   -0.4,   -0.2,   -0.0,    0.2,    0.1,   -0.7,   -0.7,   -0.1,   -0.7,   -1.8,   -2.1,   -2.6
1999/07/12 01:50,   -0.6,  999.0,  999.0,  999.0,  999.0,   -0.5,  999.0,  999.0,  999.0,   -0.5,   -0.6,  999.0,  999.0,  999.0,   -0.6,   -0.8,   -0.9,   -0.9,   -0.7,   -0.7,   -0.4,   -0.0,   -0.2,   -0.5,   -0.3,   -0.1,   -0.3,   -0.3,   -2.3,   -2.6,   -3.0,   -2.8
1999/07/12 02:00,   -0.6,   -0.6,  999.0,   -0.6,  999.0,   -0.5,  999.0,  999.0,  999.0,   -0.3,   -0.4,   -0.4,   -0.6,   -0.7,  999.0,   -0.8,   -0.8,   -0.6,   -0.5,   -0.6,   -0.4,   -0.5,   -0.5,   -0.4,   -0.3,    0.1,   -1.5,   -3.2,   -2.9,   -3.0,   -3.0,   -2.9
1999/07/12 02:10,  999.0,  999.0,  999.0,  999.0,  999.0,   -0.5,   -0.2,   -0.2,   -0.2,   -0.3,   -0.4,   -0.4,   -0.4,  999.0,   -0.8,   -0.7,   -0.7,  999.0,   -0.3,   -0.2,  999.0,   -0.4,   -0.1,    0.0,   -0.3,   -0.1,   -0.8,   -1.2,   -1.3,   -1.5,   -2.4,   -2.3
1999/07/12 02:20,  999.0,   -0.7,  999.0,  999.0,  999.0,   -0.6,  999.0,   -0.2,   -0.4,   -0.8,   -0.9,   -0.6,   -0.6,   -0.7,   -0.8,   -0.8,   -0.8,   -0.5,   -0.7,   -0.6,   -0.3,   -0.1,    0.0,    0.2,   -0.2,   -0.5,   -0.8,   -1.2,   -1.2,   -1.5,   -2.5,   -2.1
1999/07/12 02:30,   -0.4,   -0.7,  999.0,   -0.8,   -0.8,   -0.5,  999.0,   -0.1,  999.0,   -0.6,   -0.6,   -0.6,   -0.7,   -0.9,   -0.8,  999.0,   -0.4,   -0.3,  999.0,   -0.4,   -0.5,    0.1,   -0.4,   -0.5,   -0.8,   -0.6,   -0.6,   -1.5,   -1.7,   -2.1,   -2.6,   -2.3
1999/07/12 02:40,  999.0,   -0.5,  999.0,   -0.6,  999.0,   -0.6,  999.0,  999.0,  999.0,   -0.8,   -0.6,   -0.6,   -0.5,   -0.6,   -0.4,   -0.5,   -0.1,   -0.4,   -0.4,   -0.5,   -0.7,   -0.4,   -0.5,   -0.6,   -0.9,   -1.5,   -1.5,   -2.0,   -1.8,   -2.1,   -2.4,   -2.2
1999/07/12 02:50,   -0.6,   -0.6,  999.0,   -0.6,   -0.7,   -0.4,  999.0,  999.0,   -0.3,   -0.5,   -0.6,   -0.6,   -0.6,   -0.6,   -0.7,   -0.6,   -0.5,  999.0,   -0.5,   -0.5,   -0.5,   -0.6,   -0.7,   -0.7,   -0.7,   -0.8,   -1.9,   -1.9,   -1.7,   -2.2,   -2.4,   -2.4
1999/07/12 03:00,   -0.6,   -0.5,  999.0,   -0.6,   -0.6,  999.0,   -0.5,   -0.3,   -0.4,   -0.5,   -0.5,   -0.5,   -0.2,   -0.8,   -0.7,   -0.2,  999.0,  999.0,   -0.3,  999.0,   -0.2,   -0.2,   -0.3,    0.0,   -1.2,   -1.7,   -2.0,   -2.0,   -1.7,   -2.1,   -2.5,   -2.3
1999/07/12 03:10,   -0.4,  999.0,   -0.5,   -0.5,   -0.6,   -0.6,  999.0,  999.0,   -0.7,   -0.7,   -0.6,   -0.6,   -0.4,   -0.4,   -0.9,   -0.7,   -0.5,   -0.6,   -0.5,   -0.6,   -0.7,   -0.8,   -1.1,   -0.9,   -1.7,   -1.1,   -1.8,   -1.8,   -1.9,   -2.6,   -2.5,   -2.2
1999/07/12 03:20,  999.0,   -0.6,   -0.5,  999.0,  999.0,  999.0,   -0.1,  999.0,   -0.3,  999.0,   -0.6,   -0.8,   -0.7,   -0.9,   -1.2,   -0.8,   -0.6,   -0.6,   -0.5,   -0.5,   -1.1,   -1.0,   -1.3,   -2.0,   -2.5,   -1.9,   -2.1,   -2.4,   -2.7,   -3.2,   -3.2,   -2.7
1999/07/12 03:30,   -0.4,   -0.5,   -0.7,  999.0,   -0.7,   -0.7,   -0.6,  999.0,   -0.5,   -0.3,   -0.4,   -0.4,   -0.4,   -0.5,   -0.6,   -0.6,   -0.8,   -0.4,   -0.9,   -0.9,   -0.5,   -0.0,   -0.2,   -0.4,   -0.5,   -1.6,   -2.5,   -2.2,   -2.5,   -3.4,   -3.2,   -2.6
1999/07/12 03:40,  999.0,  999.0,  999.0,  999.0,   -0.4,   -0.4,   -0.3,   -0.4,   -0.3,   -0.3,   -0.4,   -0.8,   -0.8,   -0.7,   -0.6,   -0.6,   -0.3,   -0.5,   -0.6,   -0.8,   -0.7,   -0.8,   -1.4,   -1.7,   -1.7,   -1.8,   -1.6,   -1.5,   -2.0,   -2.1,   -1.9,   -1.7
1999/07/12 03:50,  999.0,  999.0,   -0.6,   -0.6,   -0.5,   -0.5,   -0.5,   -0.1,  999.0,   -0.1,   -0.3,   -0.5,   -0.7,   -0.8,   -0.7,   -0.6,   -0.3,   -0.1,   -0.3,   -0.5,   -1.2,   -1.4,   -1.5,   -0.7,   -1.2,   -1.1,   -0.9,   -0.9,   -1.4,   -1.7,   -1.3,   -1.4
1999/07/12 04:00,  999.0,   -0.4,   -0.5,   -0.4,   -0.5,  999.0,   -0.6,   -0.2,  999.0,   -0.3,   -0.3,   -0.7,   -0.6,   -0.6,   -0.6,   -0.4,   -0.4,   -0.2,   -0.1,   -0.3,   -0.5,   -0.7,   -1.1,   -0.9,   -0.8,   -1.0,   -1.3,   -1.8,   -2.6,   -2.7,   -2.3,   -2.1
1999/07/12 04:10,   -0.4,   -0.5,   -0.6,   -0.6,   -0.7,   -0.8,  999.0,   -0.5,   -0.2,   -0.7,   -0.7,   -0.8,   -0.7,   -0.7,   -0.8,   -0.6,   -0.5,   -0.3,   -0.1,   -0.2,   -0.3,   -0.5,   -0.5,   -0.5,   -0.8,   -1.2,   -2.0,   -2.8,   -3.3,   -3.0,   -2.4,   -2.1
1999/07/12 04:20,   -0.2,  999.0,   -0.2,   -0.2,   -0.2,   -0.3,   -0.3,   -0.1,  999.0,   -0.5,   -0.7,   -0.7,   -0.8,   -0.9,   -0.7,   -0.7,   -0.6,   -0.6,   -0.2,   -0.2,   -0.3,   -0.3,   -0.5,   -0.7,   -0.7,   -0.9,   -1.7,   -2.4,   -2.8,   -2.6,   -2.2,   -2.0
1999/07/12 04:30,   -0.3,  999.0,   -0.5,  999.0,   -0.6,  999.0,   -0.4,   -0.3,   -0.2,   -0.2,   -0.6,   -0.7,   -0.8,   -0.7,   -0.6,   -0.6,   -0.6,   -0.6,   -0.3,   -0.1,   -0.2,   -0.3,   -0.4,   -0.5,   -0.5,   -1.1,   -1.3,   -2.8,   -3.1,   -2.5,   -2.0,   -1.8
1999/07/12 04:40,   -0.1,   -0.1,  999.0,   -0.2,   -0.2,   -0.2,  999.0,  999.0,   -0.4,  999.0,   -0.9,   -0.9,   -0.7,   -0.7,   -0.8,   -0.8,  999.0,   -0.7,   -0.4,   -0.4,   -0.4,   -0.4,   -0.5,   -0.6,   -0.6,   -1.1,   -1.4,   -2.2,   -2.7,   -2.4,   -2.0,   -1.7
1999/07/12 04:50,   -0.1,  999.0,   -0.1,   -0.0,   -0.0,   -0.1,   -0.2,  999.0,   -0.4,   -0.6,   -0.9,   -0.9,   -0.9,   -0.8,   -0.8,   -0.9,   -0.8,   -0.8,   -0.5,   -0.3,   -0.3,   -0.3,   -1.4,   -1.5,   -2.2,   -2.6,   -2.9,   -3.1,   -2.9,   -2.5,   -2.1,   -1.7
1999/07/12 05:00,  999.0,   -0.2,   -0.1,   -0.1,    0.0,   -0.1,    0.0,   -0.1,   -0.4,   -0.5,   -0.7,   -0.7,   -0.8,   -0.8,   -0.8,   -0.7,   -0.7,   -0.8,   -1.3,   -0.6,   -0.7,   -1.2,   -2.3,   -2.5,   -2.9,   -3.4,   -3.6,   -3.7,   -3.5,   -3.0,   -2.8,   -2.7
1999/07/12 05:10,  999.0,   -0.0,   -0.1,   -0.1,   -0.1,   -0.1,  999.0,   -0.1,  999.0,   -0.5,   -0.6,   -0.7,   -0.8,   -0.7,   -0.7,   -0.7,   -0.7,   -2.1,   -3.5,   -2.7,   -2.4,   -2.5,   -3.2,   -3.6,  999.0,   -3.4,   -3.8,   -3.5,   -3.4,   -3.5,   -3.8,   -3.6
1999/07/12 05:20,   -0.0,   -0.0,   -0.0,   -0.1,   -1.4,   -0.9,    0.2,   -1.8,   -5.0,   -3.9,   -5.0,   -4.3,   -3.0,   -0.8,   -2.0,   -4.1,   -2.8,   -2.9,   -3.1,   -3.8,   -3.7,   -3.6,   -3.3,   -3.2,   -2.7,   -2.8,   -2.9,   -3.0,   -3.0,   -2.4,   -2.2,   -2.3
1999/07/12 05:30,   -0.3,   -1.9,  999.0,   -0.7,   -0.3,   -0.6,    0.0,   -0.0,   -0.3,    0.1,   -2.2,  999.0,   -0.6,   -0.4,   -0.4,   -0.6,   -0.9,   -1.1,   -1.7,   -2.2,   -3.1,   -2.7,   -3.5,   -3.4,   -4.1,   -4.2,   -4.2,   -4.1,   -4.2,   -4.2,   -3.7,   -3.5
1999/07/12 05:40,   -1.2,  999.0,   -1.7,  999.0,   -1.7,   -2.0,   -1.5,   -3.8,   -3.1,   -3.1,   -2.8,   -1.8,   -2.5,   -0.7,   -0.5,   -0.7,   -1.2,   -1.4,   -1.2,   -1.4,   -1.2,   -1.5,   -2.0,   -3.1,   -3.3,   -3.3,   -3.1,   -3.5,   -3.6,   -2.9,   -3.1,   -2.9
1999/07/12 05:50,   -0.1,  999.0,    0.0,   -0.2,  999.0,    0.0,   -0.2,   -0.1,   -0.4,   -0.6,   -0.3,   -0.5,   -0.8,   -0.8,   -0.8,   -0.8,   -0.8,   -0.6,   -0.3,   -0.4,   -0.5,   -1.2,   -1.9,   -2.0,   -2.3,   -2.8,   -2.7,   -2.3,   -2.2,   -2.3,   -2.4,   -2.2
1999/07/12 06:00,    0.0,   -0.0,   -0.2,   -0.2,   -0.2,   -0.1,   -0.0,   -0.3,   -0.2,   -0.1,   -0.3,   -0.6,   -0.7,   -0.5,   -0.3,   -0.2,   -0.3,   -0.2,   -0.2,   -0.3,   -0.6,   -1.1,   -1.4,   -2.1,   -2.7,   -3.0,   -2.9,   -2.8,   -2.6,   -2.4,   -2.6,   -2.4
1999/07/12 06:10,    0.1,    0.1,    0.0,    0.0,    0.1,    0.1,    0.1,    0.0,   -0.1,   -0.1,   -0.2,   -0.7,  999.0,   -0.7,   -0.6,   -0.6,   -0.7,   -0.5,   -0.4,   -0.9,   -1.4,   -2.3,   -3.2,   -3.3,   -3.2,   -3.2,   -3.0,   -2.7,   -2.4,   -2.2,   -2.1,   -1.9
1999/07/12 06:20,    0.1,   -0.1,   -0.1,    0.0,    0.1,    0.1,    0.0,   -0.1,  999.0,  999.0,   -0.3,  999.0,   -0.7,  999.0,  999.0,  999.0,  999.0,   -1.1,  999.0,   -2.8,   -3.7,   -3.8,   -3.8,   -3.7,   -3.0,   -2.9,   -2.6,   -2.2,   -2.0,   -1.7,   -1.4,   -1.1
1999/07/12 06:30,    0.1,  999.0,   -0.1,   -0.1,  999.0,   -0.2,   -0.3,   -0.2,    0.0,   -0.1,  999.0,   -0.2,   -0.4,   -0.3,   -1.2,   -0.2,   -0.4,   -1.1,   -1.4,   -0.7,   -0.9,  999.0,   -3.5,   -3.5,   -2.9,   -2.7,   -2.6,   -2.1,   -1.8,   -1.6,   -1.4,   -1.0
1999/07/12 06:40,   -0.0,    0.1,   -0.1,  999.0,  999.0,    0.1,    0.0,   -0.3,   -0.5,  999.0,  999.0,  999.0,  999.0,   -0.7,   -0.5,   -0.3,   -0.5,   -0.6,   -1.1,   -2.6,   -2.6,   -2.3,   -3.8,   -3.5,   -2.8,   -2.6,   -2.4,   -2.2,   -2.1,   -2.1,   -2.1,   -1.8
1999/07/12 06:50,    0.2,  999.0,    0.2,    0.2,    0.2,    0.3,    0.0,   -0.1,   -0.1,   -0.5,   -0.8,   -0.8,   -0.6,   -0.6,   -1.1,   -1.8,   -2.1,   -1.7,   -2.1,   -1.4,   -1.6,   -2.2,   -2.8,   -2.9,   -2.6,   -2.5,   -2.2,   -2.0,   -1.5,  999.0,   -0.9,  999.0
1999/07/12 07:00,    0.1,  999.0,    0.2,    0.1,    0.2,  999.0,  999.0,   -0.1,   -0.1,   -0.4,  999.0,   -0.4,   -0.6,   -1.2,   -0.8,   -2.4,   -2.7,   -3.3,   -2.1,   -1.7,   -3.7,   -4.1,   -4.2,   -3.8,   -3.0,   -3.4,   -3.2,   -3.0,   -3.0,   -2.7,   -2.3,   -2.2
1999/07/12 07:10,    0.0,   -1.3,   -2.1,   -0.4,   -1.3,   -1.2,  999.0,   -3.5,   -3.8,   -4.0,   -4.6,   -4.0,   -4.9,   -4.6,   -4.7,   -5.0,   -5.4,   -5.4,   -5.3,   -5.6,   -6.0,   -6.1,   -5.9,   -4.0,   -3.2,   -3.1,   -2.9,   -3.0,   -3.1,   -3.0,   -2.9,   -2.3
1999/07/12 07:20,   -3.6,   -2.9,   -2.4,   -3.4,   -3.3,   -3.4,   -1.9,   -1.8,   -2.3,   -3.2,   -1.9,   -1.5,   -2.2,   -2.0,   -3.7,   -4.0,   -4.0,   -4.0,  999.0,   -3.7,   -4.2,   -4.2,   -4.4,   -3.5,   -3.0,   -3.0,   -3.0,   -3.0,   -3.0,   -2.9,   -2.7,   -2.2
1999/07/12 07:30,  999.0,    0.1,    0.0,  999.0,  999.0,  999.0,    0.2,   -0.3,    0.0,   -0.2,   -0.3,  999.0,   -0.5,   -0.5,   -0.5,   -1.0,   -1.8,   -0.5,   -0.8,   -2.1,   -1.4,   -1.3,  999.0,   -3.4,   -3.2,   -2.8,   -2.6,   -2.7,   -2.7,   -2.3,   -2.1,   -1.9
1999/07/12 07:40,   -0.1,    0.2,    0.1,    0.0,    0.2,  999.0,   -0.2,    0.0,   -0.0,  999.0,  999.0,    0.1,   -0.1,   -0.3,   -0.2,   -0.6,   -1.2,   -1.1,   -0.7,  999.0,  999.0,   -2.1,   -3.2,   -3.6,   -3.2,   -2.8,   -2.9,   -3.0,   -2.8,   -2.7,   -2.6,   -2.2
1999/07/12 07:50,    0.0,    0.3,  999.0,    0.1,  999.0,  999.0,    0.2,  999.0,  999.0,  999.0,  999.0,   -0.2,   -0.2,   -0.2,   -0.4,  999.0,  999.0,  999.0,  999.0,  999.0,  999.0,  999.0,  999.0,   -3.8,   -3.0,   -2.8,   -2.7,   -2.5,   -2.7,   -2.5,   -2.4,   -2.4
1999/07/12 08:00,    0.0,   -0.0,  999.0,   -0.1,  999.0,  999.0,  999.0,    0.0,   -0.0,    0.0,  999.0,  999.0,   -0.1,   -0.1,   -0.5,  999.0,  999.0,  999.0,   -1.0,  999.0,   -4.7,   -4.7,   -4.7,   -4.1,   -2.9,   -2.7,   -2.7,   -2.5,   -2.6,   -2.6,   -2.4,   -2.4
1999/07/12 08:10,    0.4,    0.3,    0.3,    0.2,  999.0,    0.1,  999.0,    0.1,  999.0,   -0.1,  999.0,   -0.1,   -0.1,   -1.1,   -0.4,   -1.0,  999.0,  999.0,  999.0,   -3.1,  999.0,  999.0,  999.0,  999.0,   -2.6,   -2.1,   -2.1,   -2.0,   -2.0,   -1.7,   -1.7,   -1.4
1999/07/12 08:20,    0.2,    0.3,    0.2,    0.1,    0.2,    0.1,    0.2,    0.1,    0.1,   -0.0,  999.0,   -0.1,   -0.1,   -0.1,   -0.5,   -0.7,   -0.7,  999.0,   -1.2,   -1.2,  999.0,   -1.8,  999.0,   -2.1,  999.0,  999.0,  999.0,   -1.5,   -1.4,   -0.6,   -0.7,   -0.7
1999/07/12 08:30,    0.5,    0.5,  999.0,    0.4,    0.4,    0.3,  999.0,  999.0,  999.0,   -0.1,  999.0,   -0.2,   -0.2,   -0.4,   -0.6,  999.0,   -0.7,   -0.9,   -1.0,   -1.2,   -1.1,   -1.2,  999.0,  999.0,  999.0,  999.0,   -1.3,   -1.3,   -1.0,  999.0,   -0.7,   -0.6
1999/07/12 08:40,    0.4,    0.4,    0.3,    0.1,  999.0,  999.0,  999.0,    0.1,  999.0,   -0.2,  999.0,   -0.2,   -0.1,   -0.2,   -0.3,   -0.5,   -0.8,   -1.0,   -1.2,   -1.2,   -1.1,   -1.2,  999.0,  999.0,  999.0,   -1.1,  999.0,   -0.9,   -0.8,   -0.6,   -0.6,   -0.5
1999/07/12 08:50,    0.1,    0.3,    0.1,  999.0,    0.2,    0.1,  999.0,    0.0,    0.0,   -0.2,  999.0,  999.0,   -0.2,   -0.1,   -0.2,   -0.4,   -0.6,   -0.8,   -0.9,   -1.1,   -1.1,   -1.2,  999.0,   -1.4,   -1.3,   -1.0,  999.0,   -0.7,  999.0,  999.0,   -0.6,   -0.6
1999/07/12 09:00,    0.1,  999.0,    0.3,  999.0,    0.3,  999.0,  999.0,  999.0,  999.0,  999.0,  999.0,  999.0,   -0.4,   -0.2,   -0.3,  999.0,  999.0,   -0.9,   -1.0,   -1.1,   -0.9,  999.0,  999.0,   -1.2,   -1.4,   -0.9,  999.0,  999.0,  999.0,  999.0,   -0.7,  999.0
1999/07/12 09:10,   -0.1,  999.0,    0.3,  999.0,    0.1,    0.1,  999.0,   -0.0,   -0.2,   -0.0,  999.0,   -0.1,   -0.3,   -0.2,   -0.2,   -0.5,   -0.6,   -0.7,   -0.8,   -1.2,   -0.8,  999.0,  999.0,  999.0,   -0.8,   -0.7,   -0.8,   -1.0,   -0.9,   -0.8,  999.0,   -0.7
1999/07/12 09:20,    0.3,    0.1,  999.0,   -0.0,   -0.1,  999.0,  999.0,   -0.0,  999.0,  999.0,  999.0,  999.0,   -0.2,   -0.2,   -0.3,   -0.7,   -0.8,   -1.0,   -0.9,   -1.3,  999.0,   -1.3,  999.0,  999.0,   -1.1,   -0.6,   -0.9,   -0.9,   -0.9,  999.0,  999.0,   -0.9
1999/07/12 09:30,    0.5,    0.2,    0.1,   -0.2,   -0.2,    0.0,    0.0,   -0.1,  999.0,  999.0,   -0.2,  999.0,   -0.3,   -0.1,   -0.3,  999.0,   -0.6,   -0.7,   -1.0,   -1.2,   -1.2,  999.0,   -1.4,   -1.4,   -1.1,   -0.7,   -0.9,   -0.8,   -0.9,  999.0,  999.0,   -0.8
1999/07/12 09:40,  999.0,    0.1,  999.0,    0.0,  999.0,  999.0,  999.0,   -0.2,   -0.0,  999.0,  999.0,  999.0,   -0.3,   -0.1,   -0.2,   -0.3,   -0.5,   -0.6,  999.0,   -1.2,  999.0,  999.0,   -1.5,  999.0,  999.0,   -0.9,   -0.9,   -1.0,   -1.2,  999.0,  999.0,   -1.1
1999/07/12 09:50,  999.0,    0.5,    0.3,    0.3,    0.2,  999.0,    0.2,   -0.1,    0.1,   -0.1,   -0.2,  999.0,   -0.2,   -0.1,   -0.4,   -0.6,   -0.7,   -0.9,   -1.3,   -1.3,  999.0,  999.0,   -1.5,   -1.4,   -1.2,   -0.9,   -0.9,   -1.0,  999.0,  999.0,  999.0,   -1.2
1999/07/12 10:00,  999.0,   -0.0,   -0.0,    0.2,    0.3,    0.1,   -0.0,   -0.1,    0.1,  999.0,   -0.1,  999.0,  999.0,    0.1,   -0.2,   -0.5,   -0.5,   -0.8,   -1.0,   -1.2,   -1.2,   -1.4,  999.0,   -1.7,   -1.5,  999.0,   -1.1,   -1.1,   -1.1,  999.0,   -1.2,   -1.2
1999/07/12 10:10,  999.0,    0.2,    0.2,    0.3,    0.2,    0.2,    0.1,   -0.1,   -0.0,  999.0,   -0.1,  999.0,   -0.2,   -0.2,   -0.4,   -0.6,  999.0,   -0.7,   -1.0,   -1.2,  999.0,   -1.2,   -1.3,  999.0,   -1.4,  999.0,   -1.1,   -1.0,   -1.2,  999.0,  999.0,   -1.2
1999/07/12 10:20,    0.2,    0.1,    0.4,    0.3,    0.3,    0.1,    0.1,    0.1,    0.1,  999.0,   -0.1,  999.0,   -0.2,   -0.2,   -0.4,   -0.7,   -0.6,   -0.8,   -1.2,   -1.3,   -1.0,   -1.2,   -1.2,   -1.3,   -1.3,   -1.1,   -1.0,   -0.9,   -0.7,  999.0,  999.0,   -0.9
1999/07/12 10:30,  999.0,    0.1,  999.0,  999.0,    0.5,    0.2,  999.0,    0.0,  999.0,    0.1,  999.0,  999.0,  999.0,   -0.4,   -0.6,   -0.6,   -0.7,   -0.9,   -1.1,  999.0,   -1.0,   -1.1,   -1.2,   -1.2,   -1.2,   -1.0,   -1.1,   -0.9,  999.0,  999.0,  999.0,  999.0
1999/07/12 10:40,    0.1,    0.1,    0.2,    0.3,    0.1,    0.1,    0.2,    0.2,    0.1,    0.0,  999.0,  999.0,   -0.2,   -0.3,  999.0,  999.0,   -0.7,   -0.9,   -1.0,  999.0,   -1.0,   -1.2,   -1.2,   -1.2,   -1.1,   -1.0,   -1.1,  999.0,   -0.8,  999.0,  999.0,   -1.3
1999/07/12 10:50,  999.0,  999.0,  999.0,    0.5,  999.0,    0.3,    0.3,    0.1,    0.1,    0.1,    0.1,  999.0,   -0.1,   -0.2,  999.0,   -0.3,   -0.6,   -0.8,   -1.0,  999.0,   -1.1,   -1.2,   -1.2,   -1.2,   -1.0,  999.0,  999.0,  999.0,   -0.6,  999.0,  999.0,   -1.2
1999/07/12 11:00,   -0.0,    0.2,    0.3,  999.0,  999.0,    0.3,  999.0,    0.2,    0.2,    0.2,    0.2,    0.1,   -0.0,   -0.1,   -0.3,   -0.4,   -0.6,   -0.8,   -1.1,   -0.9,   -1.2,   -1.3,   -1.3,   -1.2,  999.0,  999.0,  999.0,  999.0,   -0.7,  999.0,  999.0,   -1.0
1999/07/12 11:10,   -0.0,    0.1,    0.1,    0.2,    0.2,    0.2,    0.1,  999.0,  999.0,    0.0,    0.0,    0.0,  999.0,  999.0,  999.0,  999.0,   -0.6,   -0.7,   -0.6,   -1.0,   -1.1,   -1.1,  999.0,   -1.0,  999.0,  999.0,  999.0,  999.0,   -0.7,   -0.8,  999.0,  999.0
1999/07/12 11:20,   -0.3,    0.1,    0.1,    0.4,  999.0,  999.0,  999.0,    0.1,  999.0,   -0.0,    0.1,   -0.0,   -0.1,   -0.3,   -0.4,   -0.3,   -0.5,   -0.6,   -0.9,   -0.8,   -1.0,   -1.1,   -1.0,   -1.1,   -0.9,  999.0,  999.0,  999.0,   -0.6,  999.0,  999.0,  999.0
1999/07/12 11:30,  999.0,    0.2,  999.0,    0.4,    0.2,  999.0,    0.2,    0.1,    0.2,    0.2,    0.1,    0.1,  999.0,   -0.1,   -0.2,   -0.1,   -0.4,   -0.5,   -0.6,  999.0,  999.0,   -0.8,   -1.0,   -0.9,   -0.9,  999.0,  999.0,   -0.8,   -0.6,  999.0,  999.0,   -1.1
1999/07/12 11:40,  999.0,  999.0,   -0.0,    0.0,    0.1,    0.1,    0.1,    0.2,    0.0,  999.0,    0.1,   -0.0,  999.0,   -0.3,  999.0,  999.0,   -0.4,   -0.7,   -0.7,  999.0,  999.0,   -0.9,   -1.0,  999.0,   -1.0,  999.0,  999.0,   -0.9,   -0.7,  999.0,  999.0,   -1.0
1999/07/12 11:50,   -0.1,  999.0,   -0.0,    0.2,  999.0,    0.0,    0.1,   -0.0,  999.0,    0.1,    0.1,  999.0,   -0.0,   -0.1,  999.0,   -0.3,   -0.6,   -0.7,  999.0,  999.0,  999.0,   -0.9,   -1.0,   -0.9,  999.0,  999.0,  999.0,  999.0,   -0.6,  999.0,   -1.3,   -1.3
1999/07/12 12:00,   -0.9,  999.0,   -0.1,   -0.0,  999.0,    0.1,    0.0,    0.0,   -0.0,   -0.2,   -0.2,  999.0,  999.0,  999.0,   -0.5,   -0.5,   -0.6,   -0.7,   -0.9,  999.0,  999.0,  999.0,   -0.8,   -0.8,  999.0,  999.0,  999.0,  999.0,   -0.7,   -0.9,   -1.3,  999.0
1999/07/12 12:10,   -0.7,  999.0,   -0.1,    0.0,    0.1,    0.1,    0.1,   -0.0,    0.0,   -0.1,   -0.1,   -0.1,   -0.3,  999.0,   -0.5,   -0.6,   -0.7,   -0.9,   -1.0,  999.0,  999.0,  999.0,   -0.8,   -0.9,  999.0,   -0.7,  999.0,  999.0,   -0.8,   -1.1,  999.0,   -1.3
1999/07/12 12:20,   -0.4,   -0.3,   -0.1,    0.1,    0.2,    0.2,  999.0,    0.0,   -0.1,   -0.2,   -0.3,   -0.2,   -0.2,   -0.6,   -0.6,   -0.8,   -0.8,   -1.0,   -1.0,  999.0,  999.0,  999.0,   -0.9,   -0.9,   -0.7,   -0.7,  999.0,   -0.5,   -0.8,   -1.0,   -1.3,  999.0
1999/07/12 12:30,   -0.3,  999.0,    0.1,  999.0,    0.2,    0.1,    0.0,   -0.1,   -0.2,   -0.1,   -0.1,   -0.1,  999.0,  999.0,  999.0,   -0.8,   -0.8,   -1.0,   -1.0,   -0.9,   -1.1,   -0.9,   -1.0,   -1.0,   -1.1,   -0.8,   -0.9,   -0.9,   -0.8,   -1.2,   -1.2,  999.0
1999/07/12 12:40,   -0.2,  999.0,  999.0,  999.0,   -0.1,   -0.1,   -0.2,   -0.1,   -0.1,  999.0,  999.0,  999.0,   -0.8,   -0.7,  999.0,   -0.9,   -1.1,   -1.2,   -1.1,   -1.0,   -1.3,   -1.1,   -1.0,   -0.9,   -1.0,   -1.1,   -1.1,   -1.0,   -1.0,   -0.9,   -1.1,   -1.1
1999/07/12 12:50,  999.0,    0.1,    0.2,  999.0,    0.2,    0.1,   -0.1,   -0.1,  999.0,   -0.2,  999.0,   -0.7,   -0.6,   -0.8,   -1.1,   -0.9,   -0.9,   -1.0,   -1.7,   -1.8,   -2.1,   -1.6,   -1.1,   -0.9,   -0.9,   -0.9,   -0.9,   -1.0,   -1.0,   -1.1,   -1.4,   -1.1
1999/07/12 13:00,  999.0,  999.0,  999.0,  999.0,  999.0,    0.4,    0.2,   -1.9,    0.2,  999.0,   -2.6,   -0.1,   -1.8,   -2.2,   -2.3,   -2.3,   -2.9,   -1.2,   -4.2,   -4.4,   -4.6,   -2.3,   -2.5,   -2.7,   -1.9,   -2.2,   -1.8,  999.0,  999.0,  999.0,  999.0,  999.0
1999/07/12 13:10,   -3.3,   -6.0,   -6.1,   -5.6,   -5.3,   -5.5,   -5.5,   -5.0,   -4.8,   -5.2,   -4.8,   -4.7,   -2.6,   -3.7,   -4.5,   -4.6,   -4.2,   -4.2,   -4.1,   -4.3,   -4.5,   -4.8,   -4.9,   -4.2,   -2.2,   -1.8,   -1.8,   -1.9,   -2.0,   -1.8,   -1.6,   -1.8
1999/07/12 13:20,   -3.3,   -4.0,   -3.5,   -3.1,   -2.8,   -2.0,   -3.4,   -2.5,   -3.5,   -2.5,   -1.9,   -2.1,   -0.2,   -0.2,  999.0,   -0.2,   -0.9,   -0.6,   -0.4,   -1.0,   -0.8,   -1.1,   -1.0,   -0.7,   -0.5,   -0.6,   -0.7,   -0.8,   -0.7,   -1.0,   -1.3,   -1.4
1999/07/12 13:30,   -0.8,   -0.6,  999.0,   -0.1,   -0.2,  999.0,   -0.1,   -0.3,  999.0,   -0.3,   -0.2,   -0.2,   -0.1,   -0.3,   -0.2,   -0.2,   -0.4,   -0.2,   -0.1,   -0.2,   -0.2,   -0.2,   -0.4,   -0.6,   -0.5,   -0.5,   -0.7,   -1.0,   -0.7,   -0.9,   -1.2,   -1.4
1999/07/12 13:40,  999.0,  999.0,   -0.1,  999.0,   -0.1,  999.0,    0.1,   -0.2,   -0.1,   -0.0,   -0.1,   -0.1,   -0.2,   -0.0,   -0.1,   -0.1,   -0.2,   -0.2,   -0.2,   -0.4,   -0.6,   -0.7,   -0.8,   -0.7,   -0.6,   -0.7,   -0.9,   -1.1,   -1.0,   -1.2,   -1.2,   -1.4
1999/07/12 13:50,   -0.5,  999.0,    0.1,  999.0,   -0.0,   -0.2,   -0.1,   -0.1,   -0.1,   -0.2,  999.0,   -0.3,  999.0,   -0.3,   -0.2,   -0.2,   -0.0,   -0.2,   -0.6,   -0.8,  999.0,   -0.9,   -1.1,  999.0,  999.0,   -1.0,   -1.1,   -1.1,   -0.9,   -1.1,   -1.1,   -1.2
1999/07/12 14:00,   -0.6,   -0.3,   -0.1,    0.0,    0.1,    0.0,   -0.1,   -0.2,   -0.2,   -0.2,   -0.4,   -0.4,  999.0,   -0.3,   -0.3,  999.0,   -0.0,   -0.4,   -0.9,   -1.0,   -1.1,   -1.3,   -1.1,   -1.2,   -1.0,   -0.9,   -1.1,   -1.1,   -1.1,   -1.1,   -1.1,   -1.3
1999/07/12 14:10,  999.0,   -0.3,   -0.1,   -0.1,    0.1,    0.1,    0.2,    0.0,   -0.2,   -0.4,   -0.4,   -0.4,   -0.2,  999.0,   -0.2,   -0.3,    0.1,   -0.4,   -0.9,   -1.3,   -1.1,   -1.2,   -1.1,   -0.8,   -1.0,   -1.1,   -1.0,   -0.9,   -0.8,   -0.9,   -0.9,   -1.1
1999/07/12 14:20,   -0.5,   -0.1,   -0.1,   -0.1,    0.1,    0.2,    0.0,   -0.1,   -0.2,   -0.4,   -0.6,   -0.5,   -0.2,  999.0,   -0.3,    0.0,    0.1,   -0.5,   -1.1,  999.0,  999.0,  999.0,  999.0,   -1.2,   -1.2,   -1.0,   -1.2,   -1.2,   -1.2,   -1.3,   -1.3,   -1.3
1999/07/12 14:30,   -0.3,   -0.4,   -0.7,  999.0,   -0.4,   -0.2,   -0.3,   -0.3,   -0.5,   -0.5,   -0.5,   -0.5,   -0.2,   -0.2,   -0.3,   -0.0,    0.0,   -0.4,   -0.9,  999.0,  999.0,  999.0,  999.0,  999.0,   -1.1,   -1.1,   -1.2,   -1.1,   -1.1,   -1.2,   -1.3,   -1.6
1999/07/12 14:40,    0.0,   -0.1,    0.2,    0.2,    0.1,    0.2,   -0.2,   -0.3,   -0.4,   -0.2,   -0.4,   -0.3,   -0.3,   -0.3,   -0.2,    0.0,    0.2,   -0.3,   -0.8,  999.0,  999.0,  999.0,  999.0,   -0.9,   -0.9,   -1.0,   -1.0,   -0.7,   -1.0,   -1.1,   -1.2,   -1.4
1999/07/12 14:50,   -0.2,   -0.1,    0.1,    0.1,    0.1,    0.0,   -0.2,   -0.3,   -0.6,   -0.8,   -0.4,   -0.3,  999.0,  999.0,   -0.2,   -0.1,    0.1,   -0.2,   -0.7,  999.0,   -1.0,   -1.0,  999.0,   -1.0,   -1.0,   -1.1,   -0.9,   -0.8,   -1.1,  999.0,   -1.3,   -1.4
1999/07/12 15:00,   -0.2,   -0.4,   -0.4,   -0.0,    0.0,   -0.0,    0.0,   -0.3,   -0.5,  999.0,  999.0,  999.0,   -0.7,   -0.5,   -0.3,  999.0,   -0.1,   -0.6,   -1.0,  999.0,  999.0,  999.0,   -1.1,   -1.0,  999.0,  999.0,   -0.6,   -0.8,  999.0,   -1.4,   -1.3,  999.0
1999/07/12 15:10,   -0.2,   -0.2,   -0.1,   -0.1,    0.0,   -0.1,   -0.2,   -0.2,   -0.8,  999.0,   -0.2,   -0.1,  999.0,   -0.0,   -0.1,    0.1,    0.0,   -0.5,   -0.8,  999.0,   -1.1,  999.0,  999.0,   -0.8,  999.0,  999.0,   -0.6,  999.0,  999.0,  999.0,  999.0,  999.0
1999/07/12 15:20,   -0.4,    0.0,    0.2,   -0.0,   -0.1,   -0.1,   -0.2,   -0.4,  999.0,  999.0,  999.0,  999.0,   -0.6,  999.0,  999.0,   -0.4,   -0.3,   -0.7,   -1.2,  999.0,  999.0,  999.0,   -1.1,   -1.2,   -1.3,   -1.0,  999.0,  999.0,  999.0,  999.0,  999.0,  999.0
1999/07/12 15:30,   -0.8,   -0.3,   -0.2,   -0.2,   -0.3,   -0.2,   -0.4,   -0.7,  999.0,  999.0,   -0.4,   -0.4,   -0.2,   -0.1,   -0.1,   -0.1,   -0.2,   -0.5,  999.0,  999.0,   -1.0,   -0.8,   -0.8,   -0.9,   -1.0,   -1.1,   -1.1,  999.0,  999.0,   -1.4,  999.0,  999.0
1999/07/12 15:40,   -0.6,   -0.1,   -0.2,   -0.2,   -0.2,   -0.1,   -0.4,  999.0,   -0.5,   -0.6,  999.0,   -0.7,   -0.4,   -0.4,   -0.4,  999.0,   -0.6,   -0.8,   -1.4,   -1.2,  999.0,   -0.8,   -0.8,   -0.9,   -0.9,  999.0,  999.0,  999.0,  999.0,   -1.4,   -1.6,   -1.7
1999/07/12 15:50,    0.1,   -0.0,   -0.1,    0.0,   -0.0,   -0.3,   -0.6,   -0.6,   -0.8,   -0.8,  999.0,   -0.8,  999.0,   -0.5,   -0.7,  999.0,   -0.6,   -0.8,   -1.1,   -1.2,   -1.0,   -0.8,   -0.6,   -0.5,  999.0,   -0.8,  999.0,  999.0,   -1.1,   -1.1,   -1.2,   -1.6
1999/07/12 16:00,   -0.5,  999.0,   -0.1,  999.0,   -0.1,  999.0,   -0.6,   -0.5,  999.0,  999.0,  999.0,  999.0,  999.0,  999.0,   -0.6,   -0.6,   -0.8,   -0.9,   -1.0,   -1.0,   -0.9,   -0.8,   -0.8,  999.0,  999.0,   -1.0,  999.0,  999.0,  999.0,  999.0,   -1.3,   -1.3
1999/07/12 16:10,   -0.2,   -0.3,   -0.1,   -0.2,   -0.4,   -0.6,   -0.9,   -0.8,   -0.7,   -0.6,  999.0,  999.0,   -0.2,   -0.3,   -0.6,   -0.6,   -0.7,   -0.9,   -1.1,   -1.2,   -1.1,   -1.0,  999.0,  999.0,  999.0,   -0.6,   -0.7,   -1.1,  999.0,  999.0,   -1.3,   -1.5
1999/07/12 16:20,   -0.3,   -0.1,   -0.1,    0.3,    0.1,   -0.1,  999.0,  999.0,  999.0,  999.0,  999.0,  999.0,  999.0,  999.0,   -0.9,   -0.8,   -1.0,   -1.0,   -1.1,  999.0,  999.0,  999.0,  999.0,  999.0,  999.0,   -0.9,   -0.9,  999.0,  999.0,   -1.3,   -1.4,   -1.6
1999/07/12 16:30,  999.0,   -0.4,   -0.2,   -0.1,   -0.1,   -0.3,  999.0,  999.0,   -0.8,  999.0,   -0.0,   -0.1,   -0.2,   -0.7,   -0.9,   -1.0,   -1.3,   -1.5,   -1.4,   -1.6,  999.0,  999.0,  999.0,  999.0,  999.0,   -0.8,   -0.8,   -0.9,   -0.9,   -0.9,   -1.0,   -1.3
1999/07/12 16:40,   -0.2,   -0.1,   -0.1,   -0.0,   -0.1,   -0.5,  999.0,   -0.9,   -0.9,   -0.8,  999.0,   -0.2,   -0.4,   -0.4,   -0.5,   -0.7,   -1.1,   -1.3,   -1.5,   -1.3,   -1.0,   -0.8,   -0.6,   -0.6,   -0.6,   -0.7,  999.0,   -0.7,   -0.8,   -1.0,   -0.9,   -1.1
1999/07/12 16:50,   -0.3,   -0.2,   -0.2,   -0.0,  999.0,   -0.6,   -0.7,   -0.9,   -0.9,  999.0,  999.0,   -0.1,  999.0,  999.0,   -0.7,   -0.9,   -1.1,   -1.3,   -1.4,   -1.4,   -1.2,   -0.9,   -0.8,   -0.6,  999.0,  999.0,  999.0,   -0.8,   -0.8,   -0.9,   -0.9,   -1.2
1999/07/12 17:00,  999.0,    0.1,    0.1,    0.0,   -0.1,   -0.7,   -0.8,   -1.0,   -0.9,   -0.8,   -0.8,  999.0,   -0.8,   -0.8,   -0.8,   -0.9,   -0.9,   -1.1,   -1.2,   -1.1,   -1.1,   -1.0,  999.0,   -0.7,   -0.7,   -0.8,   -0.8,   -0.9,   -0.7,   -0.9,   -0.9,   -1.1
1999/07/12 17:10,    0.2,    0.2,    0.1,    0.1,  999.0,   -0.6,   -0.9,   -1.1,  999.0,  999.0,   -0.8,  999.0,   -0.9,   -1.1,   -1.0,   -0.9,   -1.2,   -1.4,   -1.2,   -1.1,  999.0,   -0.6,  999.0,  999.0,  999.0,   -0.7,  999.0,   -0.8,   -0.8,   -0.9,   -1.1,  999.0
1999/07/12 17:20,    0.2,    0.0,    0.0,   -0.1,  999.0,   -0.8,   -0.9,   -1.0,  999.0,   -1.0,   -0.9,  999.0,   -0.8,   -0.9,   -1.0,   -1.1,   -1.3,   -1.0,   -1.3,   -0.9,   -0.6,   -0.8,   -0.6,   -0.8,   -0.8,   -0.7,   -1.0,   -0.9,   -1.0,   -1.0,   -1.2,   -1.3
1999/07/12 17:30,    0.2,    0.2,   -0.1,  999.0,   -0.4,  999.0,  999.0,  999.0,   -1.0,   -0.8,  999.0,   -0.8,   -0.6,   -0.6,   -0.9,   -0.8,   -1.2,   -1.3,  999.0,   -1.3,   -1.2,   -0.9,  999.0,   -1.1,   -1.9,   -2.7,   -2.0,   -1.3,   -1.7,   -1.7,   -1.8,   -1.6
1999/07/12 17:40,    0.0,  999.0,    0.1,    0.0,   -0.2,  999.0,   -0.8,   -0.6,   -0.7,   -0.7,   -0.6,   -0.6,   -0.4,   -0.5,   -0.7,   -0.9,   -1.2,  999.0,  999.0,   -1.1,   -1.0,   -0.8,   -0.7,   -0.8,   -1.2,   -1.1,   -1.1,   -1.4,   -1.7,  999.0,   -1.5,   -1.2
1999/07/12 17:50,    0.1,    0.0,    0.2,    0.1,   -0.2,   -0.6,  999.0,   -0.7,  999.0,  999.0,   -0.8,   -0.8,   -1.0,   -1.1,   -1.2,   -1.3,   -1.5,   -1.7,   -1.4,   -1.4,   -1.2,   -1.3,   -1.4,   -1.5,   -1.5,   -1.5,   -1.5,   -1.5,   -1.9,   -2.0,   -1.9,   -1.6
1999/07/12 18:00,    0.1,    0.2,    0.2,    0.3,  999.0,   -0.2,  999.0,   -0.6,   -0.8,   -0.9,   -0.8,   -0.9,   -1.0,   -1.1,   -1.3,   -1.6,   -1.5,   -1.5,   -1.0,   -0.7,   -0.7,   -0.9,   -1.2,   -1.1,   -1.2,   -1.2,   -1.4,   -1.5,   -1.6,   -1.7,   -1.7,   -1.5
1999/07/12 18:10,    0.1,    0.3,  999.0,  999.0,   -0.2,   -0.1,   -0.6,   -0.8,  999.0,   -0.9,   -0.9,   -1.1,   -1.3,   -1.4,   -1.3,   -1.4,   -1.3,   -1.2,   -1.0,   -0.6,   -0.6,   -0.8,   -1.1,   -1.1,   -1.1,   -1.2,   -1.0,   -1.4,   -1.4,   -1.4,   -1.5,   -1.2
1999/07/12 18:20,  999.0,    0.3,    0.2,    0.0,   -0.1,   -0.1,   -0.6,   -0.7,   -1.0,  999.0,  999.0,   -0.9,   -1.1,  999.0,   -1.4,   -1.2,   -1.2,   -1.1,   -1.1,  999.0,   -0.7,  999.0,   -0.7,   -0.9,   -1.0,   -1.0,  999.0,   -1.2,   -1.2,   -1.2,   -1.1,   -1.2
1999/07/12 18:30,  999.0,    0.4,    0.1,   -0.3,   -0.4,  999.0,   -0.7,   -0.8,   -0.9,   -0.9,   -0.8,   -0.8,   -0.8,   -0.9,   -1.2,   -1.4,  999.0,   -1.1,   -1.2,  999.0,   -0.8,   -1.0,   -1.0,   -1.1,   -1.1,   -1.1,   -1.1,   -1.3,   -1.2,   -1.3,   -1.4,   -1.1
1999/07/12 18:40,  999.0,  999.0,    0.0,   -0.1,  999.0,   -0.6,   -0.7,  999.0,  999.0,  999.0,   -0.9,   -0.9,   -1.0,   -1.0,   -1.1,   -1.2,   -1.1,   -1.2,   -1.3,  999.0,   -1.2,   -1.3,   -1.3,   -1.4,   -1.5,   -1.3,   -1.1,   -1.4,   -1.4,   -1.7,   -1.6,   -1.4
1999/07/12 18:50,  999.0,    0.2,   -0.0,   -0.1,   -0.1,   -0.4,  999.0,  999.0,   -0.9,   -0.7,   -0.9,   -0.9,   -0.9,   -0.9,   -1.0,   -1.1,   -1.1,   -1.4,   -1.2,   -1.2,   -0.9,   -1.0,   -1.1,   -1.1,   -1.1,   -1.1,  999.0,   -1.2,   -1.3,   -1.4,   -1.3,   -1.0
1999/07/12 19:00,    0.4,    0.4,    0.2,  999.0,    0.1,   -0.4,  999.0,  999.0,  999.0,   -0.9,   -0.8,   -0.8,   -1.0,   -1.1,   -1.2,   -1.1,   -1.2,   -1.4,   -1.5,   -1.1,   -1.1,   -1.3,   -1.3,   -1.4,   -1.5,   -1.4,  999.0,   -1.4,   -1.4,   -1.6,   -1.6,   -1.3
1999/07/12 19:10,    0.1,    0.3,    0.0,   -0.2,   -0.1,   -0.5,  999.0,   -0.8,   -0.8,   -0.8,   -0.7,   -1.0,   -1.1,   -1.3,   -1.6,   -1.3,   -1.4,   -1.4,   -1.3,   -1.0,   -0.9,   -1.0,   -1.1,   -1.2,   -1.3,   -1.2,   -1.1,   -1.2,   -1.4,   -1.5,   -1.6,   -1.5
1999/07/12 19:20,  999.0,  999.0,   -0.2,  999.0,  999.0,   -0.4,  999.0,  999.0,  999.0,  999.0,  999.0,  999.0,  999.0,  999.0,  999.0,  999.0,   -1.2,   -1.5,   -1.3,   -0.8,   -0.9,   -0.9,   -1.1,   -1.2,   -1.4,   -1.2,   -1.2,   -1.2,   -1.5,   -1.6,   -1.7,   -1.5
1999/07/12 19:30,   -0.2,   -0.1,   -0.4,   -0.0,   -0.1,    0.0,   -0.1,  999.0,   -1.0,  999.0,  999.0,  999.0,   -0.9,   -0.9,   -1.4,   -1.8,   -1.5,   -1.6,  999.0,   -1.3,   -1.0,   -1.1,   -1.2,   -1.2,   -1.4,   -1.5,   -1.5,   -1.5,   -1.6,   -1.8,   -1.8,   -1.6
1999/07/12 19:40,   -0.0,    0.1,    0.0,    0.3,    0.1,   -0.2,   -0.7,  999.0,  999.0,   -0.9,  999.0,   -0.7,   -0.7,   -1.2,   -1.4,   -1.5,   -1.6,   -1.6,   -1.4,   -1.1,   -0.7,   -0.9,   -1.0,   -0.9,   -1.3,   -1.0,  999.0,   -1.2,   -1.3,   -1.3,   -1.3,   -1.4
1999/07/12 19:50,    0.1,    0.1,    0.2,   -0.0,   -0.0,   -0.2,   -0.4,  999.0,   -0.7,  999.0,  999.0,   -0.8,   -0.8,   -0.9,   -1.1,  999.0,  999.0,   -1.3,   -1.3,   -1.1,   -0.7,   -0.7,   -0.8,  999.0,  999.0,   -1.1,  999.0,   -1.1,   -1.1,   -1.1,   -1.1,   -1.0
1999/07/12 20:00,    0.0,    0.0,    0.2,    0.0,   -0.0,   -0.0,    0.0,   -0.7,   -0.6,   -0.7,   -0.8,   -0.8,   -0.9,  999.0,  999.0,  999.0,   -1.3,   -1.5,   -1.5,   -1.3,   -0.9,   -1.0,   -1.2,   -1.2,   -1.5,   -1.5,   -1.5,   -1.5,   -1.5,   -1.6,   -1.3,   -1.5
1999/07/12 20:10,    0.2,  999.0,    0.2,    0.1,  999.0,   -0.2,   -0.2,   -0.4,  999.0,   -0.6,   -0.8,   -0.9,   -1.1,   -1.2,   -1.1,   -1.1,   -1.5,   -1.5,   -1.4,   -1.1,   -0.8,   -1.2,   -1.3,   -1.6,   -1.6,   -1.4,   -1.4,  999.0,   -1.2,   -1.2,   -1.3,   -1.6
1999/07/12 20:20,    0.0,    0.1,    0.1,  999.0,    0.1,    0.1,   -0.1,  999.0,   -0.2,  999.0,  999.0,  999.0,   -0.9,  999.0,   -1.0,   -1.1,   -1.3,   -1.3,   -1.2,   -1.0,   -0.9,   -1.1,   -1.1,   -1.2,   -1.2,   -1.1,   -1.0,   -1.1,   -1.0,   -1.0,   -1.1,  999.0
1999/07/12 20:30,  999.0,    0.2,    0.1,    0.0,   -0.0,    0.0,   -0.1,   -0.2,   -0.5,  999.0,  999.0,   -0.9,  999.0,  999.0,   -1.2,   -1.4,   -1.5,   -1.4,   -1.4,   -1.1,   -0.9,   -1.1,   -1.4,   -1.3,   -1.2,   -1.3,   -1.1,  999.0,   -1.0,   -1.1,   -1.1,   -1.0
1999/07/12 20:40,    0.2,    0.2,    0.1,    0.2,   -0.0,   -0.1,   -0.2,   -0.5,  999.0,  999.0,   -0.5,   -0.7,   -1.0,   -1.3,   -1.3,   -1.5,   -1.4,   -1.3,   -1.2,   -0.9,   -1.0,   -1.1,   -1.2,   -1.5,   -1.6,   -1.5,   -1.4,   -1.2,   -1.2,   -1.5,   -1.2,  999.0
1999/07/12 20:50,    0.4,    0.3,    0.2,    0.2,    0.0,   -0.1,  999.0,   -0.2,  999.0,   -0.1,   -0.4,  999.0,   -0.9,  999.0,   -1.4,   -1.5,   -1.7,   -1.4,   -1.2,   -0.6,   -0.7,   -0.8,   -0.7,  999.0,   -1.2,   -1.3,   -1.4,   -1.1,   -1.0,   -1.2,   -1.2,   -1.1
1999/07/12 21:00,    0.4,  999.0,    0.1,    0.1,  999.0,   -0.2,   -0.3,   -0.5,  999.0,  999.0,  999.0,   -0.8,   -0.9,   -1.2,   -1.6,   -1.7,   -1.8,   -1.4,   -1.3,   -1.0,   -0.8,   -0.8,   -0.7,   -1.0,   -1.1,   -1.3,  999.0,   -1.3,   -1.0,   -1.1,   -1.2,   -1.1
1999/07/12 21:10,    0.3,    0.2,    0.1,   -0.0,   -0.1,   -0.2,   -0.3,   -0.2,   -0.3,   -0.2,   -0.2,  999.0,   -0.6,   -0.8,   -1.1,   -1.4,   -1.5,   -1.2,   -1.2,  999.0,   -0.8,   -0.8,   -0.9,   -1.2,   -1.3,   -1.3,   -1.3,   -1.4,   -1.3,   -1.2,   -1.5,   -1.6
1999/07/12 21:20,  999.0,  999.0,    0.1,   -0.0,   -0.1,   -0.2,   -0.4,   -0.4,  999.0,  999.0,  999.0,   -0.5,   -0.6,   -0.8,   -1.0,   -1.3,   -1.5,   -1.4,   -1.2,  999.0,   -0.8,   -0.8,   -0.9,   -1.3,   -1.4,   -1.5,   -1.5,   -1.6,   -1.4,   -1.4,   -1.5,   -1.6
1999/07/12 21:30,  999.0,    0.5,    0.2,    0.1,   -0.0,   -0.1,   -0.3,  999.0,  999.0,  999.0,   -0.4,   -0.6,  999.0,   -0.7,   -0.8,   -1.3,   -1.4,   -1.5,   -1.3,   -1.2,   -1.0,   -0.8,   -0.8,   -1.2,   -1.3,   -1.4,   -1.5,   -1.4,   -1.4,   -1.3,   -1.2,   -1.4
1999/07/12 21:40,  999.0,  999.0,  999.0,    0.2,   -0.0,   -0.1,   -0.2,  999.0,  999.0,  999.0,  999.0,   -0.8,   -0.8,   -0.8,   -0.9,  999.0,   -1.2,  999.0,   -1.3,   -1.3,   -1.1,   -0.8,   -0.7,   -1.0,  999.0,  999.0,   -1.1,  999.0,  999.0,  999.0,   -1.1,   -1.5
1999/07/12 21:50,  999.0,  999.0,    0.4,    0.2,   -0.1,  999.0,   -0.3,   -0.2,   -0.6,  999.0,  999.0,   -0.9,   -1.0,   -1.1,  999.0,   -1.3,   -1.4,   -1.4,   -1.4,   -1.2,  999.0,  999.0,   -0.6,   -0.8,   -1.0,   -1.2,   -1.3,   -1.5,   -1.1,   -1.1,   -1.1,   -1.2
1999/07/12 22:00,  999.0,    0.5,    0.4,    0.4,   -0.0,   -0.0,   -0.2,  999.0,  999.0,  999.0,  999.0,  999.0,   -0.8,  999.0,   -1.0,   -1.4,   -1.3,  999.0,  999.0,   -1.2,   -1.1,   -1.2,   -0.8,   -1.0,   -1.4,   -1.4,   -1.5,   -1.3,   -1.2,   -1.3,   -1.1,   -1.3
1999/07/12 22:10,  999.0,  999.0,  999.0,  999.0,   -0.2,   -0.2,   -0.5,   -0.6,  999.0,   -0.8,  999.0,  999.0,   -0.9,   -0.8,   -1.0,   -1.1,  999.0,  999.0,  999.0,  999.0,   -1.0,   -0.9,   -0.8,   -0.9,   -1.2,   -1.4,   -1.3,   -1.6,   -1.7,   -1.6,   -1.5,   -1.7
1999/07/12 22:20,  999.0,  999.0,  999.0,  999.0,    0.2,   -0.1,  999.0,  999.0,  999.0,  999.0,  999.0,   -0.8,   -0.8,   -0.7,   -0.8,   -1.0,   -1.2,   -1.2,  999.0,  999.0,  999.0,   -1.0,   -0.8,   -0.9,  999.0,   -1.4,   -1.4,   -1.5,   -1.6,   -1.5,   -1.4,   -1.5
1999/07/12 22:30,  999.0,    0.5,  999.0,  999.0,    0.2,   -0.1,   -0.1,  999.0,  999.0,  999.0,  999.0,  999.0,   -0.9,   -0.7,   -1.0,   -1.1,   -1.3,   -1.5,  999.0,  999.0,  999.0,   -1.3,   -1.1,   -1.2,   -1.6,   -1.6,   -1.4,   -1.3,   -1.5,   -1.3,   -1.4,   -1.4
1999/07/12 22:40,    0.6,  999.0,    0.7,  999.0,    0.2,   -0.0,  999.0,  999.0,  999.0,  999.0,  999.0,  999.0,   -0.9,   -0.9,   -0.8,   -1.1,   -1.2,  999.0,  999.0,   -1.1,   -1.1,   -1.1,   -1.1,   -1.1,   -1.3,   -1.4,   -1.3,   -1.3,   -1.3,   -1.6,  999.0,   -1.8
1999/07/12 22:50,    0.3,  999.0,    0.5,    0.4,    0.2,   -0.0,   -0.1,   -0.5,  999.0,  999.0,  999.0,   -0.9,   -0.9,   -0.9,   -0.8,   -1.1,   -1.2,  999.0,   -1.4,  999.0,   -1.2,   -2.1,   -1.7,  999.0,   -2.4,   -2.2,   -2.1,   -1.9,   -1.7,   -1.9,   -2.1,   -2.3
1999/07/12 23:00,    0.5,  999.0,    0.7,    0.5,    0.2,  999.0,   -0.2,  999.0,  999.0,  999.0,  999.0,   -1.0,   -1.0,   -0.9,   -1.1,   -1.2,  999.0,  999.0,   -2.0,   -1.4,   -1.4,   -1.6,   -2.3,   -3.2,   -3.2,   -2.4,   -2.7,   -2.7,   -2.4,   -2.2,   -2.5,   -2.7
1999/07/12 23:10,  999.0,  999.0,    0.9,  999.0,  999.0,    0.1,   -0.2,  999.0,  999.0,   -0.8,   -0.8,   -0.6,   -0.7,   -0.5,   -0.9,   -2.1,   -4.2,   -4.2,   -2.7,   -1.9,   -4.1,   -3.9,   -4.2,   -4.0,   -3.4,   -3.2,   -3.2,   -3.1,   -2.8,   -2.7,   -2.6,   -2.8
1999/07/12 23:20,  999.0,  999.0,  999.0,  999.0,   -1.3,   -2.0,  999.0,   -0.1,  999.0,  999.0,   -3.6,   -4.4,   -3.7,   -4.0,   -3.9,   -5.0,   -5.3,   -5.3,   -5.5,   -5.4,   -5.3,   -5.3,   -5.6,   -4.3,   -3.6,   -3.8,   -3.7,   -3.5,   -3.7,   -3.8,   -4.1,   -4.1
1999/07/12 23:30,  999.0,  999.0,   -4.5,   -5.2,   -4.6,   -5.3,   -5.4,   -5.5,   -0.3,   -2.2,   -5.2,   -5.5,   -5.4,   -5.3,   -5.6,   -6.1,   -6.4,   -6.6,   -6.6,   -6.8,   -6.8,   -7.0,   -6.7,   -4.4,   -3.4,   -3.3,   -3.1,   -3.3,   -3.5,   -3.9,   -4.1,   -4.3
1999/07/12 23:40,   -5.1,   -5.1,   -5.0,   -5.3,   -5.3,   -5.2,   -5.6,   -6.3,  999.0,   -5.7,   -3.7,   -5.4,   -6.0,   -5.5,   -6.2,   -5.7,   -6.1,   -5.9,   -5.9,   -4.9,   -5.3,   -5.6,   -5.5,   -3.8,   -3.4,   -3.5,   -3.3,   -3.5,   -3.2,   -3.4,   -3.6,   -3.8
1999/07/12 23:50,   -1.6,   -2.1,   -0.7,  999.0,    0.3,   -0.7,  999.0,   -0.2,  999.0,   -0.2,   -1.2,   -1.4,   -2.0,   -1.4,   -3.0,   -4.2,   -3.9,   -4.4,   -4.3,   -3.9,   -4.6,   -3.8,   -3.8,   -3.4,   -2.5,   -2.7,   -3.0,   -3.0,   -3.5,   -3.5,   -3.7,   -3.6
